This is the latest recevied weather packets stored in our database for station/object DL6MAA-11. If no packets are shown the sender has not sent any weather packets the latest 10 day(s).
| Time | Temp. | Humidity | Pressure | Rain* | Wind** | Luminosity | Snow |
|---|---|---|---|---|---|---|---|
| 1777915025 | 21.11° C | 43% | 1009.2 hPa | 0 mm | - | 47 W/m² | - |
| 1777914715 | 21.11° C | 45% | 1008.8 hPa | 0 mm | - | 58 W/m² | - |
| 1777914422 | 21.11° C | 43% | 1008.8 hPa | 0 mm | - | 65 W/m² | - |
| 1777914127 | 21.11° C | 43% | 1008.8 hPa | 0 mm | - | 69 W/m² | - |
| 1777913815 | 21.11° C | 43% | 1008.7 hPa | 0 mm | - | 77 W/m² | - |
| 1777913522 | 21.11° C | 42% | 1008.7 hPa | 0 mm | - | 79 W/m² | - |
| 1777913231 | 21.11° C | 43% | 1008.7 hPa | 0 mm | - | 83 W/m² | - |
| 1777912933 | 21.11° C | 44% | 1008.7 hPa | 0 mm | - | 84 W/m² | - |
| 1777912623 | 21.11° C | 42% | 1008.7 hPa | 0 mm | - | 84 W/m² | - |
| 1777912334 | 21.11° C | 43% | 1008.7 hPa | 0 mm | - | 72 W/m² | - |
| 1777912015 | 21.11° C | 43% | 1008.9 hPa | 0 mm | - | 63 W/m² | - |
| 1777911718 | 21.11° C | 43% | 1008.9 hPa | 0 mm | - | 72 W/m² | - |
| 1777911427 | 21.67° C | 44% | 1008.9 hPa | 0 mm | - | 76 W/m² | - |
| 1777911132 | 21.67° C | 42% | 1008.7 hPa | 0 mm | - | 93 W/m² | - |
| 1777910831 | 21.67° C | 42% | 1008.7 hPa | 0 mm | - | 107 W/m² | - |
| 1777910522 | 21.67° C | 42% | 1008.7 hPa | 0 mm | - | 118 W/m² | - |
| 1777910230 | 21.67° C | 42% | 1008.6 hPa | 0 mm | - | 120 W/m² | - |
| 1777909918 | 21.67° C | 42% | 1008.6 hPa | 0 mm | - | 125 W/m² | - |
| 1777909620 | 21.67° C | 41% | 1008.6 hPa | 0 mm | - | 125 W/m² | - |
| 1777909330 | 22.22° C | 41% | 1008.8 hPa | 0 mm | - | 151 W/m² | - |
| 1777909032 | 22.22° C | 42% | 1008.8 hPa | 0 mm | - | 206 W/m² | - |
| 1777908712 | 22.22° C | 41% | 1008.8 hPa | 0 mm | - | 195 W/m² | - |
| 1777908421 | 22.22° C | 42% | 1008.9 hPa | 0 mm | - | 258 W/m² | - |
| 1777908126 | 22.22° C | 42% | 1008.9 hPa | 0 mm | - | 174 W/m² | - |
| 1777907827 | 22.22° C | 42% | 1008.9 hPa | 0 mm | - | 158 W/m² | - |
* Rain since midnight (hover to see other rain measurements)
** Current wind speed in m/s (hover to see current wind gust speed)